Regional Weather Roundup
Issued by NWS

Home | Current Version | Previous Version | Text Only | Print | Product List | Glossary On
Versions: 1 2 3 4 5 6 7 8 9 10 11 12 13 14 15 16 17 18 19 20 21 22 23 24 25 26 27 28 29 30 31 32 33 34 35 36 37 38 39 40 41 42 43 44 45 46 47 48 49 50
745
ASUS44 KJAN 270010
RWRMS

MISSISSIPPI HOURLY WEATHER ROUNDUP
NATIONAL WEATHER SERVICE JACKSON MS
600 PM CST WED NOV 26 2014

NOTE: "FAIR: INDICATES FEW OR NO CLOUDS BELOW 12,000 FEET WITH NO
SIGNIFICANT WEATHER AND/OR OBSTRUCTIONS TO VISIBILITY.

MSZ001>002-007>008-010>013-018>021-025>028-034>036-270100-
NORTHWEST MISSISSIPPI

CITY           SKY/WX    TMP DP  RH WIND       PRES   REMARKS
CLARKSDALE     FAIR      45  39  81 CALM      30.13R
CLEVELAND      FAIR      47  39  73 N3        30.12R
GREENWOOD      CLEAR     54  30  40 NW8       30.12R
6HR MIN TEMP:  54; 6HR MAX TEMP:  64;

GREENVILLE     PTCLDY    51  37  58 W5        30.13R
6HR MIN TEMP:  50; 6HR MAX TEMP:  65;

GRENADA        FAIR      50  34  53 NW5       30.13R
OLIVE BRANCH   MOCLDY    43  36  75 CALM      30.11R
OXFORD         FAIR      46  32  57 NW9       30.13R
TUNICA         CLEAR     45  34  65 CALM      30.13R
$$

MSZ003>006-009-014>017-022>024-029>033-037>039-270100-
NORTHEAST MISSISSIPPI

CITY           SKY/WX    TMP DP  RH WIND       PRES   REMARKS
COLUMBUS AFB   CLOUDY    56  33  42 W10       30.07R
6HR MIN TEMP:  53; 6HR MAX TEMP:  59;

CORINTH        FAIR      46  34  61 W14G20    30.07R
GOLDN TRIANGLE MOCLDY    55  36  47 W14G21    30.07R
STARKVILLE     FAIR      55  36  47 NW6       30.08R
TUPELO         MOCLDY    53  35  50 MISG      30.09R
6HR MIN TEMP:  49; 6HR MAX TEMP:  56;

$$

MSZ040-058-270100-
CENTRAL MISSISSIPPI

CITY           SKY/WX    TMP DP  RH WIND       PRES   REMARKS
JACKSON INTL   CLEAR     61  36  39 SW9       30.10R
6HR MIN TEMP:  60; 6HR MAX TEMP:  67;

JACKSON HAWKNS CLEAR     61  35  37 W8        30.10R
6HR MIN TEMP:  60; 6HR MAX TEMP:  67;

MERIDIAN KEY   CLEAR     51  34  52 SW7       30.09R
6HR MIN TEMP:  51; 6HR MAX TEMP:  63;

MERIDIAN NAS   CLEAR     56  33  42 S5        30.08R
6HR MIN TEMP:  56; 6HR MAX TEMP:  63;

RAYMOND        FAIR      59  55  88 W8        30.11R
VICKSBURG      CLEAR     56  37  49 W6        30.12R
6HR MIN TEMP:  56; 6HR MAX TEMP:  68;

$$

MSZ059>079-270100-
SOUTH MISSISSIPPI

CITY           SKY/WX    TMP DP  RH WIND       PRES   REMARKS
BROOKHAVEN     FAIR      61  39  44 SW7       30.14R
HATTIESBURG    CLEAR     56  38  50 S3        30.14S
6HR MIN TEMP:  56; 6HR MAX TEMP:  66;

MCCOMB         CLEAR     59  37  44 SW5       30.15R
6HR MIN TEMP:  59; 6HR MAX TEMP:  67;

NATCHEZ        CLEAR     59  37  44 SW8       30.16R
6HR MIN TEMP:  59; 6HR MAX TEMP:  68;

PINE BELT      CLEAR     57  36  44 SW6       30.14R
6HR MIN TEMP:  57; 6HR MAX TEMP:  64;

$$

MSZ080>082-270100-
COASTAL MISSISSIPPI

CITY           SKY/WX    TMP DP  RH WIND       PRES   REMARKS
BILOXI         CLEAR     55  47  74 SW12      30.18S
6HR MIN TEMP:  54; 6HR MAX TEMP:  58;

PASCAGOULA     CLEAR     53  44  71 SW5       30.19S
6HR MIN TEMP:  47; 6HR MAX TEMP:  62;

GULFPORT       CLEAR     56  46  69 S5        30.17F
6HR MIN TEMP:  55; 6HR MAX TEMP:  58;

$$



USA.gov is the U.S. government's official web portal to all federal, state and local government web resources and services.